CST,Max TemperatureF,Mean TemperatureF,Min TemperatureF,Max Dew PointF,MeanDew PointF,Min DewpointF,Max Humidity, Mean Humidity, Min Humidity, Max Sea Level PressureIn, Mean Sea Level PressureIn, Min Sea Level PressureIn, Max VisibilityMiles, Mean VisibilityMiles, Min VisibilityMiles, Max Wind SpeedMPH, Mean Wind SpeedMPH, Max Gust SpeedMPH,PrecipitationIn, CloudCover, Events, WindDirDegrees
2013-1-1,21,11,1,19,12,-4,100,88,78,30.21,30.05,29.89,10,8,2,24,8,22,0.00,7,,213
2013-1-2,32,20,8,27,16,1,100,81,69,30.26,29.99,29.86,10,10,2,18,14,21,0.00,6,,310
2013-1-3,24,14,3,19,12,-4,86,80,72,30.28,30.16,29.98,10,10,9,26,14,30,0.00,3,,244
2013-1-4,30,20,10,19,11,5,86,76,64,30.11,30.05,29.99,10,10,10,20,11,,0.00,0,,238
2013-1-5,21,13,5,16,8,0,93,81,73,30.14,30.00,29.90,10,10,2,20,11,24,0.00,3,,276
2013-1-6,21,14,6,21,11,3,100,88,79,30.16,30.04,29.76,10,7,0,18,10,,0.00,3,,221
2013-1-7,35,22,10,28,20,5,93,81,69,29.91,29.84,29.75,10,10,1,18,14,,0.00,0,,238
2013-1-8,37,22,8,32,23,5,100,85,70,29.88,29.76,29.64,10,9,0,23,9,31,0.00,1,,216
2013-1-9,33,26,19,28,22,14,100,80,65,30.20,30.08,29.85,10,10,10,30,16,38,0.00,0,,221
2013-1-10,42,35,28,36,31,25,100,76,57,29.99,29.75,29.51,10,10,7,36,23,44,0.00,3,,175
2013-1-11,35,24,12,36,26,10,100,99,92,29.54,29.47,29.41,8,2,0,9,3,,0.00,8,,133
2013-1-12,12,6,1,9,-1,-6,92,75,66,30.16,29.93,29.55,10,7,1,0,0,,0.00,6,,-1
2013-1-13,14,7,0,5,-2,-8,85,72,66,30.24,30.16,30.11,10,10,10,,,,0.00,1,,-1
2013-1-14,12,4,-4,9,-1,-9,92,78,72,30.32,30.24,30.16,10,10,4,,,,0.00,2,,-1
2013-1-15,30,14,0,30,10,-6,100,79,63,30.16,29.93,29.61,10,9,2,,,,0.00,4,,-1
2013-1-16,35,18,0,36,13,-8,100,82,57,30.29,29.94,29.59,10,8,0,24,12,26,0.00,4,,355
2013-1-17,19,10,1,14,6,-9,86,70,56,30.39,30.30,30.04,10,10,5,18,10,,0.00,5,,301
2013-1-18,37,27,17,32,26,14,100,90,75,30.02,29.79,29.68,10,10,10,18,11,22,0.00,1,,220
2013-1-19,35,18,1,32,12,-8,100,76,57,30.36,30.01,29.68,10,10,2,46,19,58,0.00,2,,303
2013-1-20,8,0,-7,0,-8,-18,78,63,52,30.39,30.36,30.31,10,10,4,28,14,33,0.00,1,,304
2013-1-21,5,-2,-9,-8,-14,-18,71,61,52,30.38,30.32,30.27,10,10,10,20,13,25,0.00,0,,295
2013-1-22,12,2,-9,9,-5,-17,85,68,53,30.31,30.24,30.14,10,10,4,13,8,,0.00,3,,239
2013-1-23,10,0,-9,7,-6,-22,85,68,51,30.62,30.39,30.12,10,10,2,22,12,26,0.00,1,,353
2013-1-24,14,2,-9,7,-8,-22,73,63,54,30.61,30.30,29.98,10,10,10,23,12,28,0.00,2,,144
2013-1-25,21,10,0,14,-3,-9,80,64,48,30.28,30.15,29.95,10,10,10,23,14,32,0.00,2,,323
2013-1-26,26,14,1,16,4,-6,86,71,62,30.27,30.08,29.95,10,10,10,15,9,,0.00,1,,133
2013-1-27,33,22,10,30,19,9,100,86,69,29.95,29.81,29.74,10,9,0,12,7,,0.00,3,,83
2013-1-28,30,28,26,30,29,27,100,100,100,29.82,29.77,29.70,3,1,0,9,2,,0.33,8,,249
2013-1-29,28,24,19,28,22,14,100,93,80,29.93,29.78,29.66,10,7,2,21,3,25,0.01,6,,344
2013-1-30,19,7,-7,14,-1,-15,86,74,65,29.93,29.89,29.86,10,7,2,23,17,28,0.00,7,,324
2013-1-31,-5,-10,-16,-17,-19,-26,70,64,59,30.30,30.18,29.94,10,8,2,24,18,30,0.00,2,,307